GFSFLT2_prec_radar_015.txt.gz
Reflectivity
46 38 31 39 38 26 10 -17 -15 -3 -1 -3 -7 -20 -20 -14 -6 -3 -18 -20 -20 -20 -20 -20 -20 -20 -20 -20 -20 -20 -20 -20
35 39 39 36 18 18 14 7 9 -2 -17 -20 -20 -20 -20 -17 -20 -20 -20 -20 -20 -20 -20 -20 -20 -20 -20 -20 -20 -20 -20 -20
38 35 33 33 16 2 -7 -10 -10 -14 -7 -5 -18 -20 -20 -20 -16 -20 -20 -20 -20 -20 -20 -20 -20 -20 -20 -20 -20 -20 -20 -20
27 28 27 14 16 12 5 -5 -20 -18 -16 -16 -8 -10 -20 -20 -20 -20 -20 -20 -20 -20 -20 -20 -20 -20 -20 -20 -20 -20 -20 -20
24 30 14 10 9 5 7 4 3 1 -18 -20 -20 -20 -20 -20 -20 -20 -20 -20 -20 -20 -20 -20 -20 -20 -20 -20 -20 -20 -20 -20
19 18 16 10 4 2 -20 -20 -20 -20 -20 -20 -20 -20 -20 -20 -20 -20 -20 -20 -20 -20 -20 -19 -20 -20 -20 -20 -20 -20 -20 -20
4 8 6 2 -7 -11 -20 -20 -20 -20 -20 -20 -20 -20 -20 -20 -20 -20 -20 -20 -20 -20 -20 -20 -20 -20 -20 -20 -20 -20 -20 -20
-20 -20 -20 -20 -20 -20 -20 -20 -20 -20 -20 -20 -20 -20 -20 -20 -20 -20 -20 -20 -20 -20 -20 -20 -20 -20 -20 -20 -20 -20 -20 -20
-20 -20 -20 -20 -20 -20 -20 -20 -20 -20 -20 -20 -20 -20 -20 -20 -20 -20 -20 -20 -20 -20 -20 -20 -20 -20 -20 -20 -20 -20 -20 -20
-20 -20 -20 -20 -20 -20 -20 -20 -20 -20 -20 -20 -20 -20 -20 -20 -20 -20 -20 -20 -20 -20 -20 -20 -20 -20 -20 -20 -20 -20 -20 -20
-20 -20 -20 -20 -20 -20 -20 -20 -20 -20 -20 -20 -20 -20 -20 -20 -20 -20 -20 -20 -20 -20 -20 -20 -20 -20 -20 -20 -20 -20 -20 -20
-20 -20 -20 -20 -20 -20 -20 -20 -20 -20 -20 -20 -20 -20 -20 -20 -20 -20 -20 -20 -20 -20 -20 -20 -20 -20 -20 -20 -20 -20 -20 -20
-20 -20 -20 -20 -20 -20 -20 -20 -20 -20 -20 -20 -20 -20 -20 -20 -20 -20 -20 -20 -20 -20 -20 -20 -20 -20 -20 -20 -20 -20 -20 -20
-20 -20 -20 -20 -20 -20 -20 -20 -20 -20 -20 -20 -20 -20 -20 -20 -20 -20 -20 -20 -20 -20 -20 -20 -20 -20 -20 -20 -20 -20 -20 -20
-20 -20 -20 -20 -20 -20 -20 -20 -20 -20 -20 -20 -20 -20 -20 -20 -20 -20 -20 -20 -20 -20 -20 -20 -20 -20 -20 -20 -20 -20 -20 -20
-20 -20 -20 -20 -20 -20 -20 -20 -20 -20 -20 -20 -20 -20 -20 -20 -20 -20 -20 -20 -20 -20 -20 -20 -20 -20 -20 -20 -20 -20 -20 -20
-20 -20 -20 -20 -20 -20 -20 -20 -20 -20 -20 -20 -20 -20 -20 -20 -20 -20 -20 -20 -20 -20 -20 -20 -20 -20 -20 -20 -20 -20 -20 -20
-9 -3 -20 -20 -20 -20 -20 -20 -20 -20 -20 -20 -20 -20 -20 -20 -20 -20 -20 -20 -20 -20 -20 -20 -20 -20 -20 -20 -20 -20 -20 -20
-4 -11 -20 -20 -20 -20 -20 -20 -20 -20 -20 -20 -20 -20 -20 -20 -20 -20 -20 -20 -20 -20 -20 -20 -20 -20 -20 -20 -20 -20 -20 -20
-20 -20 -20 -20 -20 -20 -20 -20 -20 -20 -20 -20 -20 -20 -20 -20 -20 -20 -20 -20 -20 -20 -20 -20 -20 -20 -20 -20 -20 -20 -20 -20

GFSFLT2_prec_radar_018.txt.gz
Reflectivity
39 39 35 40 37 34 27 13 8 -7 -20 -20 -20 -20 -20 -20 -17 -20 -20 -20 -20 -20 -20 -20 -20 -20 -20 -20 -20 -20 -20 -20
38 41 36 35 33 29 11 -5 2 -1 -20 -20 -20 -19 -3 -19 -20 -20 -20 -20 -20 -20 -20 -20 -20 -20 -20 -20 -20 -20 -20 -20
6 32 37 26 28 20 14 7 -8 -20 -20 -8 -8 -20 -20 -20 -20 -20 -20 -17 -20 -20 -20 -20 -20 -20 -20 -20 -20 -20 -20 -20
31 17 34 30 20 17 13 9 -8 -12 -11 -20 -20 -20 -20 -20 -20 -20 -20 -20 -20 -20 -20 -20 -20 -20 -20 -20 -20 -20 -20 -20
8 14 10 11 4 0 -16 -20 -20 -20 -20 -20 -20 -20 -20 -20 -20 -20 -20 -20 -20 -20 -20 -20 -20 -20 -20 -20 -20 -20 -20 -20
-9 3 12 16 9 -9 -1 -13 -15 -20 -20 -20 -20 -20 -20 -20 -20 -20 -20 -20 -20 -20 -20 -20 -20 -20 -20 -20 -20 -20 -20 -20
5 1 2 4 2 2 -0 -20 -20 -20 -20 -20 -20 -20 -20 -20 -20 -20 -20 -20 -20 -20 -20 -20 -20 -20 -20 -20 -20 -20 -20 -20
-20 -14 -20 -20 -17 -20 -20 -20 -20 -20 -20 -20 -20 -20 -20 -20 -20 -20 -20 -20 -20 -20 -20 -20 -20 -20 -20 -20 -20 -20 -20 -20
-20 -20 -20 -20 -20 -20 -20 -20 -20 -20 -20 -20 -20 -20 -20 -20 -20 -20 -20 -20 -20 -20 -20 -20 -20 -20 -20 -20 -20 -20 -20 -20
-20 -20 -20 -20 -20 -20 -20 -20 -20 -20 -20 -20 -20 -20 -20 -20 -20 -20 -20 -20 -20 -20 -20 -20 -20 -20 -20 -20 -20 -20 -20 -20
-20 -20 -20 -20 -20 -20 -20 -20 -20 -20 -20 -20 -20 -20 -20 -20 -20 -20 -20 -20 -20 -20 -20 -20 -20 -20 -20 -20 -20 -20 -20 -20
-20 -20 -20 -20 -20 -20 -20 -20 -20 -20 -20 -20 -20 -20 -20 -20 -20 -20 -20 -20 -20 -20 -20 -20 -20 -20 -20 -20 -20 -20 -20 -20
-20 -20 -20 -20 -20 -20 -20 -20 -20 -20 -20 -20 -20 -20 -20 -20 -20 -20 -20 -20 -20 -20 -20 -20 -20 -20 -20 -20 -20 -20 -20 -20
-20 -20 -20 -20 -20 -20 -20 -20 -20 -20 -20 -20 -20 -20 -20 -20 -20 -20 -20 -20 -20 -20 -20 -20 -20 -20 -20 -20 -20 -20 -20 -20
-20 -20 -20 -20 -20 -20 -20 -20 -20 -20 -20 -20 -20 -20 -20 -20 -20 -20 -20 -20 -20 -20 -20 -20 -20 -20 -20 -20 -20 -20 -20 -20
-20 -20 -3 -20 -20 -20 -20 -20 -20 -20 -20 -20 -20 -20 -20 -20 -20 -20 -20 -20 -20 -20 -20 -20 -20 -20 -20 -20 -20 -20 -20 -20
-20 -19 -17 19 -20 -20 -20 -20 -20 -20 -20 -20 -20 -20 -20 -20 -20 -20 -20 -20 -20 -20 -20 -20 -20 -20 -20 -20 -20 -20 -20 -20
-8 -17 -17 -14 -19 -20 -20 -20 -20 -20 -20 -20 -20 -20 -20 -20 -20 -20 -20 -20 -20 -20 -20 -20 -20 -20 -20 -20 -20 -20 -20 -20
-20 -20 -20 -18 -19 -11 -20 -20 -20 -20 -20 -20 -20 -20 -20 -18 -20 -20 -20 0 -20 -20 -20 -20 -20 -20 -20 -20 -20 -20 -20 -20
-20 -20 -12 19 2 5 7 -16 -20 -20 -20 -20 -20 -20 -20 -20 12 4 -20 -20 -20 -20 -20 -20 -20 -20 -20 -20 -20 -20 -20 -20

GFSFLT2_prec_radar_024.txt.gz
Reflectivity
29 31 39 38 24 10 -5 4 -12 10 12 18 -6 -20 -20 -20 -20 -20 -20 -20 -20 -20 -20 -20 -20 -20 -20 -20 -20 -20 -20 -20
6 41 43 42 32 5 1 14 15 5 9 0 -5 -17 -20 -20 -20 -20 -20 -20 -20 -20 -20 -20 -20 -20 -20 -20 -20 -20 -20 -20
0 27 38 34 29 13 20 22 17 7 3 1 -3 -19 -20 -20 -20 -20 -20 -20 -20 -20 -20 -20 -20 -20 -20 -20 -20 -20 -20 -20
6 35 34 38 37 34 34 19 2 3 -0 -2 -9 -13 -20 -20 -20 -20 -20 -20 -20 -20 -20 -20 -20 -20 -20 -20 -20 -20 -20 -20
19 32 29 29 33 27 25 21 17 11 3 -5 -3 -4 -18 -20 -20 -20 -20 -20 -20 -20 -20 -20 -20 -20 -20 -20 -20 -20 -20 -20
-10 -20 -8 2 -4 2 8 11 3 -1 -8 -20 -20 -20 -20 -20 -20 -20 -20 -20 -20 -20 -20 -20 -20 -20 -20 -20 -20 -20 -20 -20
6 -16 -6 -3 -9 -7 -20 -18 -20 -20 -20 -20 -20 -20 -20 -20 -20 -20 -20 -20 -20 -20 -20 -20 -20 -20 -20 -20 -20 -20 -20 -20
-3 1 -5 -20 -20 -20 -20 -20 -20 -20 -20 -20 -20 -20 -20 -20 -20 -20 -20 -20 -20 -20 -20 -20 -20 -20 -20 -20 -20 -20 -20 -20
-20 -20 -20 -20 -20 -20 -20 -20 -20 -20 -20 -20 -20 -20 -20 -20 -20 -20 -20 -20 -20 -20 -20 -20 -20 -20 -20 -20 -20 -20 -20 -20
-20 -20 -20 -20 -20 -20 -20 -20 -20 -20 -20 -20 -20 -20 -20 -20 -20 -20 -20 -20 -20 -20 -20 -20 -20 -20 -20 -20 -20 -20 -20 -20
-20 -20 -20 -20 -20 -20 -20 -20 -20 -20 -20 -20 -20 -20 -20 -20 -20 -20 -20 -20 -20 -20 -20 -20 -20 -20 -20 -20 -20 -20 -20 -20
-20 -20 -20 -20 -20 -20 -20 -20 -20 -20 -20 -20 -20 -20 -20 -20 -20 -20 -20 -20 -20 -20 -20 -20 -20 -20 -20 -20 -20 -20 -20 -20
-20 -20 -20 -20 -20 -20 -20 -20 -20 -20 -20 -20 -20 -20 -20 -20 -20 -20 -20 -20 -20 -20 -20 -20 -20 -20 -20 -20 -20 -20 -20 -20
-20 -20 -20 -20 -20 -20 -20 -20 -20 -20 -20 -20 -20 -20 -20 -20 -20 -20 -20 -20 -20 -20 -20 -20 -20 -20 -20 -20 -20 -20 -20 -20
-20 -20 -20 -20 -20 -20 -20 -2 -20 -20 -20 -20 -20 -20 -20 -20 -20 -20 -20 -20 -20 -20 -20 -20 -20 -20 -20 -20 -20 -20 -20 -20
-20 -20 -20 -20 -20 -20 -20 -20 -20 -20 -20 -20 -20 -20 -20 -20 -20 -20 -20 -20 -20 -20 -20 3 -20 -20 -20 -20 -20 -20 -20 -20
-20 -20 -20 -20 -20 -20 -20 -20 -20 -20 -20 -20 -20 -20 -20 -20 -20 -20 -20 -20 -19 -14 17 8 -20 -20 -20 -20 -20 -20 -20 -20
-20 -20 -20 -20 -20 -11 -12 -18 6 -20 -6 14 -20 -20 -20 -20 -20 -20 -20 -17 -2 -3 -20 -20 -20 -20 -20 -20 -15 -20 -20 -20
-20 -20 -20 -20 -15 -7 13 -20 -20 -20 -20 -1 9 -5 -6 -20 -20 -20 14 13 -20 9 14 -3 -20 -20 -20 -20 -20 -20 -20 -20
-20 -20 5 -19 -10 32 28 20 11 -19 -17 10 7 -20 5 -20 -20 -13 -13 -17 -20 9 -20 -20 -20 -20 -20 -20 -20 -20 -20 -20

GFSFLT2_prec_radar_027.txt.gz
Reflectivity
0 19 14 31 37 11 -2 -20 -5 4 -17 -2 1 4 -20 -20 -20 -20 -20 -20 -20 -20 -20 -20 -20 -20 -20 -20 -20 -20 -20 -20
28 29 18 38 39 16 3 16 15 4 10 -3 -13 -20 -20 -20 -20 -20 -20 -20 -20 -20 -20 -20 -20 -20 -20 -20 -20 -20 -20 -20
38 45 24 -3 8 27 6 16 6 10 25 -1 -13 -14 -20 -20 -20 -20 -20 -20 -20 -20 -20 -20 -20 -20 -20 -20 -20 -20 -20 -20
11 8 10 17 28 26 27 17 25 30 15 -8 -20 -20 -20 -20 -20 -20 -20 -20 -20 -20 -20 -20 -20 -20 -20 -20 -20 -20 -20 -20
13 4 8 29 34 35 35 35 20 16 -0 2 -11 -20 -20 -20 -20 -20 -20 -8 -20 -20 -20 -20 -20 -20 -20 -20 -20 -20 -20 -20
10 16 25 30 30 32 27 20 8 -3 -19 -20 -19 -20 -20 -20 -19 -20 -19 -20 -20 -20 -20 -20 -20 -20 -20 -20 -20 -20 -20 -20
-4 -13 -19 -7 -15 -16 -20 -20 -20 -20 -20 -20 -20 -20 -20 -20 -20 -20 -20 -20 -20 -20 -20 -20 -20 -20 -20 -20 -20 -20 -20 -20
-20 -5 -18 18 -19 -18 -20 -20 -20 -20 -20 -20 -20 -20 -20 -20 -20 -20 -20 -20 -20 -20 -20 -20 -20 -20 -20 -20 -20 -20 -20 -20
-20 -20 -20 -20 -20 -20 -20 -20 -20 -20 -20 -20 -20 -20 -20 -20 -20 -20 -20 -20 -20 -20 -20 -20 -20 -20 -20 -20 -20 -20 -20 -20
-20 -20 -20 -20 -20 -20 -20 -20 -20 -15 -20 -20 -20 -20 -20 -20 -20 -20 -20 -20 -20 -20 -20 -20 -20 -20 -20 -20 -20 -20 -20 -20
-20 -20 -20 -20 -20 -20 -20 -20 -20 -20 -20 -20 -20 -20 -20 -20 -20 -20 -20 -20 -20 -20 -20 -20 -20 -20 -20 -20 -20 -20 -20 -20
-20 -20 -20 -20 -20 -20 -20 -20 -20 -5 -20 -20 -20 -20 -20 -20 -20 -20 -20 -20 -20 -20 -20 -20 -20 -20 -20 -20 -20 -20 -20 -20
-20 -20 -20 -20 -20 -20 -20 -20 -20 -20 -20 -20 -20 -20 -20 -20 -20 -20 -20 -20 -20 -20 -20 -20 -20 -20 -20 -20 -20 -20 -20 -20
-20 -20 -20 -20 -20 -20 -20 -20 -20 18 13 -20 -20 -20 -20 -20 -20 -20 -20 -20 -20 -20 -20 -20 -20 -20 -20 -20 -20 -20 -20 -20
-20 -20 -20 -20 -20 -20 -20 -20 -20 -20 -12 -20 -20 -20 -20 -20 -20 -20 -20 -20 -20 -20 -20 -20 -20 -15 -20 -20 -20 -20 -20 -20
-20 -20 -20 -20 -20 -20 -20 -20 -20 11 -20 -20 -20 -20 -20 -20 -20 -20 -20 -20 -20 -20 -20 -14 -20 -4 -20 -20 -20 -20 -20 -20
-20 -20 -20 -20 -20 -20 -20 -20 -20 -10 -20 -20 -20 -20 -20 -20 -20 -20 -20 -20 -20 -20 16 28 -2 -9 -20 -20 -20 -20 -20 -20
-20 -20 -20 -20 -20 -20 -16 -20 -19 -20 2 -20 -20 -20 -18 -20 -20 -20 -20 -20 -20 -20 -15 -20 -18 -20 -20 -20 -20 -20 -20 -20
-20 -20 -20 -20 -20 -20 4 -9 4 15 -10 -18 -0 -20 12 6 11 -4 -20 -20 -20 -20 -20 -20 -20 -20 -20 -20 -20 -20 -20 -20
-20 -20 -20 -20 -20 -20 -20 -18 23 23 24 24 21 16 15 19 13 -20 -20 -20 18 24 -20 -20 -20 -20 -20 -20 -20 -20 -20 -20

GFSFLT2_prec_radar_030.txt.gz
Reflectivity
11 9 19 12 -2 11 11 8 -20 -20 -20 -14 -20 -1 -19 -20 -20 -20 -20 -20 -20 -20 -20 -20 -20 -20 -20 -20 -20 -20 -20 -20
28 10 25 3 18 23 27 27 -13 -18 7 -5 -17 5 -20 -20 -20 -20 -20 -20 -20 -20 -20 -20 -20 -20 -20 -20 -20 -20 -20 -20
18 21 27 9 19 34 34 28 2 2 13 9 20 12 4 -20 -20 -20 -20 -20 -20 -20 -20 -20 -20 -20 -20 -20 -20 -20 -20 -20
29 34 45 32 41 38 16 5 1 13 10 22 19 9 5 -20 -20 -20 -20 -20 -20 -20 -20 -20 -20 -20 -20 -20 -20 -20 -20 -20
31 16 26 23 10 29 12 25 11 18 29 13 12 1 1 -20 -20 -20 -20 -20 -20 -20 -20 -20 -20 -20 -20 -20 -20 -20 -20 -20
3 12 11 17 19 31 32 21 28 23 10 11 11 -13 -20 -20 -20 -20 -20 -20 -20 -6 -12 -20 -20 -20 -20 -20 -20 -20 -20 -20
11 18 17 33 35 28 29 16 -3 7 -0 -13 -20 -20 -20 -20 -20 -20 -20 -20 -20 -20 -20 -20 -20 -20 -20 -20 -20 -20 -20 -20
12 13 1 -13 -7 -20 -20 -20 -20 -20 -20 -20 -20 -20 -20 -20 -20 -20 -20 -20 -20 -20 -20 -20 -20 -20 -20 -20 -20 -20 -20 -20
-19 1 -2 -20 -20 -20 -20 -20 -20 -20 -20 -20 -20 -20 -20 -20 -20 -20 -20 -20 -20 -20 -20 -20 -20 -20 -20 -20 -20 -20 -20 -20
-15 4 16 -3 20 -20 -20 -20 -20 -20 -20 -20 -20 -20 -20 -20 -20 -20 -20 -20 -20 -20 -20 -20 -20 -20 -20 -20 -20 -20 -20 -20
-20 -6 4 24 16 -20 -20 -20 -20 -20 -20 -20 -20 -20 -20 -20 -20 -20 -20 -20 -20 -20 -20 -20 -20 -20 -20 -20 -20 -20 -20 -20
-20 -20 -9 8 25 -20 -20 -20 -20 -10 -20 -20 -14 -20 -20 -20 -20 -20 -20 -20 -20 -20 -20 -20 -20 -20 -20 -20 -20 -20 -20 -20
-20 -20 -20 -2 0 -20 -20 -20 27 -20 -20 -20 -20 -20 -20 -20 -20 -20 -20 -20 -20 -20 -20 -20 -20 -20 -20 -20 -20 -20 -20 -20
-20 -20 -20 -20 -20 -20 -20 -20 -20 -20 -20 -20 -20 -20 -20 -20 -20 -20 -20 -20 -20 -20 -20 -20 -20 -20 -20 -20 -20 -20 -20 -20
-20 -20 -20 -20 -20 -20 -20 -20 -20 -20 -20 -20 -20 -20 -20 -20 -20 -20 -20 -20 -20 -20 -20 -20 -20 -20 -20 -20 -20 -20 -20 -20
-20 -20 -20 -20 -20 -20 -20 -20 -20 -20 -10 -18 -20 -20 -20 -20 -20 -20 -20 -20 -20 -20 -20 -20 -17 -20 -20 -20 -20 -20 -20 -20
-20 -20 -20 -20 -20 -20 -20 -20 -20 -20 -20 -20 -20 -20 -20 -20 -19 -20 -20 -20 -20 -20 -17 -3 -20 -20 -20 -20 -20 -20 -20 -20
-20 -20 -20 -20 -20 -20 -20 -20 -20 -20 -20 -18 -20 -1 -7 -20 -13 -16 -20 -20 -20 -6 -3 -12 19 -15 -20 -20 -20 -20 -20 -20
-20 -20 -20 -20 -20 -20 -20 -20 -17 10 18 13 21 24 14 9 -1 4 6 23 20 -12 -20 28 11 -14 -20 -20 -20 -20 -20 -20
-20 -20 -20 -20 -20 -20 -20 -20 -20 12 -3 24 27 26 20 21 10 37 30 -9 2 -20 25 23 -19 -20 -20 -20 -20 -20 -20 -20

GFSFLT2_prec_radar_033.txt.gz
Reflectivity
24 3 24 4 -11 11 6 2 13 -18 -3 -11 -20 -20 -20 -20 -20 -20 -20 -20 -20 -20 -20 -20 -20 -20 -20 -20 -20 -20 -20 -20
29 28 26 -8 5 7 5 9 11 -0 20 10 7 -20 -20 -20 -20 -20 -20 -20 -20 -20 -20 -20 -20 -20 -20 -20 -20 -20 -20 -20
26 21 25 24 18 28 20 -5 11 12 25 17 9 0 12 10 10 11 -18 -20 -20 -20 -20 -20 -20 -20 -20 -20 -20 -20 -20 -20
20 27 23 22 13 19 11 16 21 28 13 10 7 10 14 21 10 9 -20 -20 -20 -20 -20 -20 -20 -20 -20 -20 -20 -20 -20 -20
25 9 19 40 18 31 42 32 29 20 13 16 9 8 14 16 8 -10 -20 -20 -20 -20 -20 -20 -20 -20 -20 -20 -20 -20 -20 -20
9 24 1 8 24 31 34 32 32 21 12 20 9 13 15 6 -11 -16 -20 -20 -20 -20 -20 -20 -20 -20 -20 -20 -20 -20 -20 -20
11 5 31 22 16 23 23 29 14 19 14 7 3 10 -7 -19 -20 -20 -20 -20 -20 -20 -20 -20 -20 -20 -20 -20 -20 -20 -20 -20
29 32 28 30 28 21 29 4 14 13 4 6 1 -7 -20 -20 -20 -20 -20 -20 -20 -20 -20 -20 -20 -20 -20 -20 -20 -20 -20 -20
16 18 17 17 6 24 6 -6 -1 7 5 -2 -20 -20 -20 -20 -20 -20 -20 -20 -20 -20 -20 -20 -20 -20 -20 -20 -20 -20 -20 -20
-5 6 -15 -20 -20 -5 10 -4 -17 -20 -20 -20 -20 -20 -20 -20 -20 -20 -20 -20 -20 -20 -20 -20 -20 -20 -20 -20 -20 -20 -20 -20
-15 -7 -20 -20 -20 -20 -20 -20 -16 -19 -20 -19 -14 -20 -20 -20 -20 -20 -20 -20 -20 -20 -20 -20 -20 -20 -20 -20 -20 -20 -20 -20
1 -10 20 -20 -20 -20 -20 -20 -20 -20 -11 -20 -20 -20 -20 -20 -20 -20 -20 -20 -20 -20 -20 -20 -20 -20 -20 -20 -20 -20 -20 -20
-20 -20 -20 17 19 -20 -20 -20 -20 -20 -20 -20 -20 -20 -20 -20 -20 -20 -20 -20 -20 -20 -20 -20 -20 -20 -20 -20 -20 -20 -20 -20
-20 -20 -20 -20 -20 -20 -20 -20 -20 -20 -20 -19 -20 -20 -20 -20 -20 -20 -20 -20 -20 -20 -20 -20 -20 -20 -20 -20 -20 -20 -20 -20
-20 -20 -20 -20 -20 -20 -20 -20 -20 -20 -20 -20 -20 -20 -20 -20 -20 -20 -20 -20 -20 -20 -20 -20 -20 -20 -20 -20 -20 -20 -20 -20
-20 -20 -20 -20 -20 -20 -20 -20 -20 -20 -20 -20 -20 -20 -20 -20 -20 -20 -20 -20 -20 -20 -20 -20 -20 -20 -20 -20 -20 -5 -20 -20
-20 -20 -20 -20 -20 -20 -20 -20 -20 -20 -20 -20 -20 -20 -20 -20 -20 -20 -20 -20 -20 -20 -20 -20 -20 -20 15 10 -14 -20 -20 -20
-20 -20 -20 -20 -20 -20 -20 -20 -20 -20 -8 -20 -17 -8 -4 19 -9 3 4 23 9 -2 9 -18 4 29 -17 19 -6 -20 -20 -20
-20 -20 -20 -20 -20 -20 -20 -20 -20 -20 -20 -8 -7 -20 -5 12 26 32 38 29 24 17 33 25 28 11 19 2 -20 -20 -20 -20
-20 -20 -20 -20 15 -9 -20 -20 -20 -20 -20 -18 20 -9 8 42 31 13 -10 -16 4 19 17 24 25 25 20 -18 -3 -17 -20 -20

GFSFLT2_prec_radar_036.txt.gz
Reflectivity
34 29 19 18 8 -0 -1 -13 -20 1 -1 13 -2 -20 -20 -20 -20 -20 -20 -20 -20 -20 -20 -20 -20 -20 -20 -20 -20 -20 -20 -20
31 27 18 -6 -3 12 9 -20 -19 11 12 1 -20 9 -8 -20 -20 -20 -20 -20 -20 -20 -20 -20 -20 -20 -20 -20 -20 -20 -20 -20
31 28 32 32 21 14 -1 10 11 -3 -20 -20 -12 15 -18 -1 -8 -20 -11 11 10 -19 -20 -20 -20 -20 -20 -20 -20 -20 -20 -20
21 28 25 18 31 30 23 33 19 10 -17 2 10 27 11 -2 6 9 5 11 -6 -20 -20 -20 -20 -20 -20 -20 -20 -20 -20 -20
-10 17 25 21 18 5 26 13 22 28 13 12 16 10 8 13 13 -0 6 0 -13 -20 -20 -20 -20 -20 -20 -20 -20 -20 -20 -20
30 -19 5 20 11 29 2 2 33 23 12 6 23 16 12 10 -8 -13 -1 -2 -20 -20 -20 -20 -20 -20 -20 -20 -20 -20 -20 -20
25 21 18 19 27 30 12 24 27 21 2 18 11 4 -5 0 -1 1 -17 -20 -20 -20 -20 -20 -20 -20 -20 -20 -20 -20 -20 -20
16 17 23 16 32 20 23 22 25 23 18 3 -12 -9 5 3 -9 -20 -20 -20 -20 -20 -20 -20 -20 -20 -20 -20 -20 -20 -20 -20
15 29 19 27 21 22 32 32 19 27 11 4 3 2 -7 -10 -20 -20 -20 -20 -20 -20 -20 -20 -20 -20 -20 -20 -20 -20 -20 -20
-20 -17 -9 12 12 17 21 32 14 -11 -9 -2 -10 -20 -20 -20 -20 -20 -20 -20 -20 -20 -20 -20 -20 -20 -20 -20 -20 -20 -20 -20
-20 -20 -20 -9 -6 -20 -12 -6 -14 -20 -20 -20 -20 -20 -20 -20 -20 -20 -20 -20 -20 -20 -20 -20 -20 -20 -20 -20 -20 -20 -20 -20
-20 -20 -20 -20 -16 -13 -20 -20 -20 -17 -15 -5 -6 -20 -20 -20 -20 -20 -20 -20 -20 -20 -20 -20 -20 -20 -20 -20 -20 -20 -20 -20
-20 -18 -8 -17 -20 -20 13 -20 -20 -20 -20 -20 -20 14 -5 -20 -20 -20 -20 -20 -20 -20 -20 -20 -20 -20 -20 -20 -20 -20 -20 -20
-19 -20 -20 -20 -20 -20 -20 -20 -20 -20 -20 -20 28 35 -11 -20 -20 -20 -20 -20 -20 -20 -20 -20 -20 -20 -20 -20 -20 -20 -20 -20
-20 -20 -20 -20 -20 -20 -20 -20 -20 -20 -20 -20 -20 -1 -20 -20 -20 -20 -20 -20 -20 -20 -20 -20 -20 -20 -20 -20 -20 -20 -20 -20
-20 -20 -20 -20 -20 -20 -20 -20 -20 -20 -20 -20 -20 -20 -20 -10 -20 -20 -20 -20 -20 -20 -20 -20 -7 -20 -20 -20 -20 -13 -4 -6
-20 -20 -20 -20 -20 -20 2 -20 -20 -20 -20 -20 -20 -20 -20 28 -9 -20 -19 -20 -19 -7 -2 26 15 13 13 -17 1 20 14 -4
-20 -20 -20 -20 -20 -20 -20 10 -20 -20 -20 -20 -20 -20 -20 4 -19 -16 -17 5 26 32 36 29 35 20 24 15 9 30 25 -17
-20 -20 -20 -20 -20 -20 -20 -20 -20 -20 -20 -18 -3 -20 -20 -20 -20 -17 15 26 31 23 14 27 26 21 22 30 33 21 6 -13
-20 -20 -20 -20 -20 -20 -20 6 -20 -3 -4 32 6 28 -2 -20 -20 -20 -18 9 -1 -20 -20 -20 -14 30 29 27 28 -3 -20 -17

GFSFLT2_prec_radar_039.txt.gz
Reflectivity
32 46 34 26 14 37 37 8 -20 -20 -20 -20 -20 -20 -20 -20 -20 -14 2 -14 -20 -20 -20 -20 -20 -20 -20 -20 -20 -20 -20 -20
41 46 39 30 29 31 10 7 0 -20 -20 -20 -20 -5 -17 -20 -0 2 4 -20 -20 -20 -20 -20 -20 -20 -20 -20 -20 -20 -20 -20
38 46 35 29 17 36 28 2 -20 -20 -20 -20 -5 -4 -20 -18 6 4 -19 -20 -20 -19 -20 -20 -20 -20 -20 -20 -20 -20 -20 -20
17 33 31 34 38 38 5 11 -15 -4 -17 -15 -13 -20 -20 7 20 17 16 3 -0 -2 0 -20 -20 -20 -20 -20 -20 -20 -20 -20
2 -11 -3 20 19 18 29 29 8 7 -3 16 15 6 -11 1 7 -16 13 -1 -1 -16 -20 -17 -20 -20 -20 -20 -20 -20 -20 -20
12 -5 -12 -13 -6 8 -6 8 -2 -20 -5 -1 3 -5 -18 -19 -17 -16 -20 -20 -14 -18 -7 -20 -20 -20 -20 -20 -20 -20 -20 -20
-15 -7 -18 -14 6 22 -2 25 2 2 3 -20 -20 -20 -20 -17 -20 -20 -20 -20 -20 -20 -20 -20 -20 -20 -20 -20 -20 -20 -20 -20
18 21 -20 14 16 12 8 27 8 3 22 -20 -20 -20 -16 -20 -9 -20 -20 -20 -20 -20 -20 -20 -20 -20 -20 -20 -20 -20 -20 -20
-14 -4 -10 23 4 4 18 26 2 8 -12 -20 -20 1 -19 -11 31 -18 -20 -20 -20 -20 -20 -20 -20 -20 -20 -20 -20 -20 -20 -20
15 19 20 12 14 17 -7 -20 -13 -1 1 -18 -4 -20 -10 -20 -20 -20 -20 -20 -20 -20 -20 -20 -20 -20 -20 -20 -20 -20 -20 -20
-20 -18 -11 6 -15 -18 1 -3 -20 -20 -20 -20 -20 -20 -20 -20 -20 -20 -20 -20 -20 -20 -20 -20 -20 -20 -20 -20 -20 -20 -20 -20
-20 -20 -20 -20 -20 -5 -15 -20 -20 -20 -20 -20 -20 -20 -14 -14 -20 -20 -20 -20 -20 -20 -20 -20 -20 -20 -20 -20 -20 -20 -20 -20
-20 -20 -20 -20 -20 -20 -20 -20 -20 -20 -20 -16 -15 -20 -20 -20 -20 -20 -20 -20 -20 -20 -20 -20 -20 -20 -20 -20 -20 -20 -20 -20
-20 -20 -20 -20 -20 -20 -20 -20 -20 -20 -20 -20 -20 -19 7 -20 -20 -20 -20 -20 -20 -20 -20 -20 -20 -20 -20 -20 -20 -20 -20 -20
-20 -20 -20 -20 -20 -20 -20 -20 -20 -20 -20 -20 -20 -20 -20 -20 -20 -20 -20 -20 -20 -20 -20 -20 -20 -20 -20 -20 -20 -20 -20 -20
-20 -20 -20 -20 -20 -20 -20 -20 -20 -20 -20 -20 -20 -20 -20 -20 -20 -20 -20 -20 -20 -20 -20 -10 4 -20 -9 24 16 -16 -20 -20
-20 -20 -20 -20 -20 -20 -20 -20 -20 -20 -20 -20 -20 -20 -20 -20 29 4 -20 -20 -19 -17 22 32 18 32 34 18 11 -20 -19 16
-20 -20 -20 -20 -20 -20 -20 -20 -20 -20 -20 -20 -20 5 -4 34 -16 15 26 22 -20 -4 2 28 2 -20 11 4 2 13 18 9
-20 -20 -20 -20 -20 -20 -20 -20 -20 -20 -20 -20 -20 -20 30 25 33 21 -16 -20 1 5 -20 -20 -20 -20 -20 9 9 10 7 9
-20 -20 -20 -20 -20 -20 -20 -20 -20 -20 -20 -20 -11 27 34 29 -8 27 -20 -20 -18 -20 -20 -20 -20 -20 -20 -6 -4 -3 12 -2

GFSFLT2_prec_radar_042.txt.gz
Reflectivity
13 7 29 41 47 25 -10 -11 -20 8 5 4 -16 -20 -20 -20 -20 -20 -20 -20 -20 -20 -20 -20 -20 -11 -20 -20 -20 -20 -20 -20
-20 29 28 20 46 36 18 23 9 -16 -20 -20 -20 -20 -20 -20 -20 -20 -20 -20 -20 -20 -20 -20 -20 -15 -20 -20 -20 -20 -20 -20
-7 41 41 40 50 29 7 0 26 4 -20 -20 -20 -20 -20 -20 -20 -20 -15 20 -12 -20 -20 -20 -17 -20 -20 -20 -20 -20 -20 -20
6 36 46 36 34 27 21 7 14 -2 -9 -20 -20 -20 -20 -20 -20 -20 -0 17 10 -6 -1 10 -17 -20 -20 -20 -20 -20 -20 -20
5 25 33 42 39 34 29 15 19 20 -4 15 -20 -20 -1 -2 -20 -20 -20 -20 -20 -19 -20 -19 -20 -20 -20 -20 -20 -20 -20 -20
-2 16 11 11 4 -4 8 -8 14 -20 -20 -20 -20 -20 -8 -20 -20 -14 -20 -20 -20 -19 -20 -20 -20 -14 -7 -20 -20 -20 -20 -20
24 -1 2 9 -1 13 -19 -6 -10 -20 -20 -20 -20 -20 -20 -20 -20 -20 -20 -20 -20 -20 -20 -20 -16 -10 -20 -20 -20 -20 -20 -20
-9 27 23 28 9 -20 10 15 -17 19 -20 -20 -20 -20 -20 -20 -20 -20 -20 -20 -20 -20 -20 -20 -20 -20 -20 -20 -20 -20 -20 -20
-16 -15 17 12 -4 -2 27 9 4 2 -11 -20 -19 -20 -20 -20 -20 -20 -20 -20 -20 -20 -20 -20 -20 -20 -20 -20 -20 -20 -20 -20
13 18 31 -18 25 -3 -1 17 0 -8 5 -20 -14 -20 -20 -20 -20 -20 -20 -20 -20 -20 -20 -20 -20 -20 -20 -20 -20 -20 -20 -20
26 20 24 22 13 23 26 3 6 18 16 -19 -5 -20 -13 -20 -20 -20 -20 -20 -20 -20 -20 -20 -20 -20 -20 -20 -20 -20 -20 -20
-20 -6 6 2 12 -0 -13 -18 -20 -14 -20 -20 -20 -20 -20 -20 -20 -20 -20 -20 -20 -20 -20 -20 -20 -20 -20 -20 -20 -20 -20 -20
-20 -15 -20 -13 -20 -20 -20 -20 -20 -20 -20 -20 -20 -20 -20 -20 -20 -20 -20 -20 -20 -20 -20 -20 -20 -20 -20 -20 -20 -20 -20 -20
-20 -20 -20 -20 -20 -20 -20 -20 -20 -20 -20 -20 -20 -20 -20 -20 -20 -20 -20 -20 -20 -20 -20 -20 -20 -20 -20 -20 -20 -20 -20 -20
-20 -20 -20 -20 -20 -20 -20 -20 -20 -20 -20 -20 -20 -20 -20 -20 -20 -20 -20 -20 -20 -20 -20 -20 -20 -20 -20 -20 -20 -20 -20 -20
-20 -20 -20 -20 -20 -20 -20 -20 -20 -20 -20 -20 -20 -20 -20 -20 -20 -20 -20 -20 -20 -20 -20 -20 -20 -3 10 30 16 13 -7 -10
-20 -20 -20 -20 -20 -20 -20 -20 -20 -20 -20 -20 -20 -20 -20 -20 -20 -20 -20 -17 24 13 10 -20 -20 -20 -1 8 -13 -17 -20 -0
-20 -20 -20 -20 -20 -20 -20 -20 -20 -20 -20 -20 -20 -20 -20 -20 -20 -20 13 26 26 13 23 -20 -12 -20 -20 -20 -20 -20 -20 -4
-20 -20 -20 -20 -20 -20 -20 -20 -20 -20 -20 -20 -20 -20 -20 -20 -7 31 24 -7 29 15 -2 -18 -20 -20 -20 -20 -20 -16 -11 -20
-20 -20 -20 -20 -20 -20 -20 -20 -20 -20 -20 -20 -12 -20 -14 -20 29 25 26 22 11 26 3 16 -20 -20 -20 -20 -20 -7 3 -14

GFSFLT2_prec_radar_048.txt.gz
Reflectivity
41 -20 -0 -20 -20 -16 12 25 15 0 -11 4 -20 -20 -20 -20 -20 -20 -20 -20 -20 -20 -20 -20 -20 -20 -20 -20 -20 -20 -20 -20
32 12 -19 28 4 6 13 30 16 -1 -20 3 -20 -20 -20 -20 -20 -20 -20 -20 -20 -20 -20 -20 -20 -20 -20 -20 -20 -20 -20 -20
4 16 12 38 29 17 19 30 37 5 -9 -20 -20 -20 -20 -20 -20 -20 -20 -20 -20 -20 -20 -20 -14 -14 -20 -20 -20 -20 -20 -20
12 30 30 23 20 3 10 27 33 15 -4 -5 -4 -20 -20 -20 -20 -20 -20 -20 -7 -20 -20 -19 -20 -19 -20 -20 -20 -20 -20 -20
7 1 3 29 32 28 21 19 32 31 28 9 -8 -20 -20 -2 -20 -20 -20 -20 -2 -20 -20 -20 -20 -20 -20 -20 -20 -20 -20 -20
-1 22 6 17 33 36 31 20 34 26 8 -13 12 4 5 -9 -20 -20 -20 -20 -10 -19 -20 -20 -20 -20 -20 -20 -20 -20 -20 -20
8 21 -2 14 31 35 36 31 32 29 22 8 19 -0 -14 -20 -20 -20 -20 -20 -20 -20 -20 -20 -20 -20 -20 -20 -20 -20 -20 -20
5 4 22 15 27 15 29 29 25 29 31 -6 -20 -20 -20 -20 -20 -20 -20 -20 -20 -20 -20 -20 -20 -20 -20 -20 -20 -20 -20 -20
12 2 20 13 16 17 11 18 29 31 16 -20 -20 -20 -20 -20 -20 -20 -18 -20 -20 -20 -20 -20 -20 -20 -20 -20 -20 -20 -20 -20
14 26 34 28 1 23 20 -5 12 12 -19 -20 -20 -20 -20 -20 -13 -15 -20 -20 -20 -20 -20 -12 -20 -20 -20 -20 -20 -20 -20 -20
32 24 3 30 31 24 16 10 4 16 -2 -20 -20 -3 -19 4 -2 -10 -12 -20 -20 -20 -20 -20 -20 -20 -20 -20 -20 -20 -20 -20
22 -3 11 29 25 2 20 -0 -20 -1 11 -20 -20 0 2 -5 -5 5 -14 -20 -20 -20 -20 -20 -20 -20 -20 -20 -20 -20 -20 -20
-3 13 -5 24 24 20 15 5 -12 -20 7 -20 -4 10 5 -17 4 27 -20 -20 -20 -20 -20 -20 -20 -20 -20 -20 -20 -20 -20 -20
-20 0 8 15 26 25 27 12 18 13 19 27 18 -8 10 -19 -11 26 -20 -20 -20 -20 -20 -20 -20 -20 -20 -20 -20 -20 -20 -20
-20 -20 -17 12 21 25 17 20 15 9 16 -3 -20 -20 -11 -20 7 -20 -20 -20 -20 -20 -20 -20 -20 -20 -20 -20 -20 -20 -20 -20
-20 -20 -20 -18 -13 -18 -20 -20 -13 -8 -10 -20 -20 -20 -20 -20 -20 -20 -20 -20 -20 -20 -20 -20 -20 -20 -20 -20 -20 -20 -20 -20
-20 -20 -20 -20 -20 -20 -20 -20 -20 -20 -20 -20 -20 -20 -20 -20 -20 -20 -20 -20 -20 -20 -20 -20 -20 -20 -18 10 -11 13 -20 -20
-20 -20 -20 -20 -20 -20 -20 -20 -20 -20 -20 -20 -20 -20 -20 -20 -20 -20 -20 -20 -20 -20 -20 -20 24 17 14 14 13 19 -20 1
-20 -20 -20 -20 -20 -20 -20 -20 -20 -20 -20 -20 -20 -20 -20 -20 -20 -20 -20 -20 -20 -20 -20 21 13 18 32 14 16 14 -20 -20
-20 -20 -20 -20 -20 -20 -20 -20 -20 -20 -20 -20 -20 -20 -20 -20 -20 -20 -20 -20 -20 -20 -20 15 22 11 32 33 29 -1 -9 7

GFSFLT2_prec_radar_051.txt.gz
Reflectivity
19 -11 -7 13 -17 -20 15 15 30 23 11 17 -10 -5 -13 -20 -20 -20 -20 -20 -20 -20 -20 -20 -20 -20 -20 -20 -20 -20 -20 -20
6 38 32 27 -8 15 29 24 25 32 14 12 3 2 -20 -20 -20 -20 -20 -20 -20 -20 -20 -20 -16 -20 -20 -20 -20 -20 -20 -20
21 36 20 28 15 25 22 28 26 30 31 14 -13 -20 -20 -20 -20 -20 -20 -20 -20 -20 -20 -20 -20 -20 -20 -20 -20 -20 -20 -20
34 6 6 10 24 36 21 25 22 31 26 -19 -20 -20 -20 -20 -20 -20 -20 -20 -20 -20 -20 -20 -20 -20 -20 -20 -20 -20 -20 -20
7 34 27 13 11 20 12 14 26 35 4 -20 -20 -20 -20 -20 -20 -20 -20 -20 -20 -20 -20 -20 -20 -20 -20 -20 -20 -20 -20 -20
22 17 29 24 20 20 15 19 31 36 -3 -20 -20 -18 -14 -20 -20 -20 -20 -20 -20 -20 -20 -20 -20 -20 -20 -20 -20 -20 -20 -20
-20 -7 20 26 27 36 29 26 31 30 -20 -11 -4 2 -19 -20 -20 -20 -20 -20 -20 -20 -20 -20 -20 -20 -20 -20 -20 -20 -20 -20
-20 -13 12 28 30 38 34 34 30 28 -3 -4 13 3 -15 -17 -20 -20 -20 -20 -20 -20 -20 -20 -20 -20 -20 -20 -20 -20 -20 -20
-20 0 -6 19 25 29 28 28 28 29 8 28 20 -12 -8 -20 -20 -20 -20 -20 -20 -20 -20 -20 -20 -20 -20 -20 -20 -20 -20 -20
3 1 13 31 20 23 18 28 25 31 31 8 -20 -1 -20 -20 -20 -20 -19 -20 -20 -20 -20 -20 -20 -20 -20 -20 -20 -20 -20 -20
18 -2 21 26 32 27 28 29 33 34 20 -13 -18 -16 -20 -20 -20 -20 -20 -20 -20 -20 -20 -20 -20 -20 -20 -20 -20 -20 -20 -20
9 33 22 5 24 31 27 25 23 29 17 -16 2 -18 -20 -20 -20 -20 -20 -20 -20 -20 -20 -20 -20 -20 -18 -20 -20 -20 -20 -20
-6 27 18 26 24 23 20 12 8 17 11 -5 -6 -15 -20 -20 -20 -20 -20 -20 -14 -19 -20 -20 -20 -20 -20 -20 -20 -20 -20 -20
-20 -19 19 20 28 28 14 11 17 23 -18 -19 -20 -20 -20 -20 -20 -20 -20 -20 -11 -20 -20 -20 -20 -20 -20 -20 -20 -20 -20 -20
-20 -20 -2 12 -9 21 23 22 21 22 0 -20 -16 -19 -18 -20 -20 -20 -20 -12 -20 -20 -20 -20 -20 -20 -20 -20 -20 -20 -20 -20
-20 2 -19 10 -7 22 9 -3 -19 -15 -4 8 -20 -20 -20 -13 -19 -20 -20 -6 -20 11 -20 -20 -20 -20 -20 -20 -20 -20 4 -20
-20 -20 -20 -20 -8 -7 -3 -7 -20 -20 -20 -14 6 5 -20 -20 -20 -20 -20 -20 -20 -20 -20 -20 -20 -20 -20 -20 2 -20 -19 -19
-20 -20 -20 -20 -20 -20 -20 -20 -20 -20 -20 -20 -8 -11 -20 -20 -20 -20 -20 -20 -20 -20 -20 -18 -20 -0 -20 8 -20 -20 5 -11
-20 -20 -20 -20 -20 -20 -20 -20 -20 -20 -20 -20 -20 -20 -20 -20 -20 -20 -20 -20 -20 -20 -20 -20 6 -20 -20 -20 5 -8 12 11
-20 -20 -20 -20 -20 -20 -20 -20 -20 -20 -20 -20 -20 -20 -20 -20 -20 -20 -20 -20 -20 -20 -20 -20 -20 -20 -20 -20 -7 16 16 36

GFSFLT2_prec_radar_054.txt.gz
Reflectivity
9 17 -19 -20 -12 35 14 -19 -20 -12 0 3 -20 11 -9 -20 -20 -20 -16 -20 -20 -20 -20 -20 -20 -20 -20 -20 -20 -20 -20 -20
32 16 29 30 -5 41 37 -1 -20 -20 -4 -1 0 15 -5 -20 8 -15 -20 -20 -20 -20 -20 -20 -20 -20 -20 -20 -20 -20 -20 -20
23 30 33 5 8 29 32 27 4 17 -6 25 28 13 -18 -0 -2 -20 -20 -20 -20 -20 -20 -20 -20 -20 -20 -20 -20 -20 -20 -20
20 37 26 6 -20 8 21 26 41 21 2 33 30 5 -18 12 -20 -20 -20 -20 -20 -20 -20 -20 -20 -20 -20 -20 -20 -20 -20 -20
-7 30 12 14 11 28 30 40 30 10 30 31 34 14 21 -18 -9 -20 -20 -20 -20 -20 -20 -20 -20 -20 -20 -20 -20 -20 -20 -20
-3 19 35 39 36 29 34 24 23 18 30 33 30 24 -19 -20 -20 -20 -20 -20 -20 -20 -20 -20 -20 -20 -20 -20 -20 -20 -20 -20
7 15 10 1 8 26 28 16 15 23 33 34 23 -9 -3 -20 -20 -20 -20 -20 -20 -20 -20 -20 -20 -20 -20 -20 -20 -20 -20 -20
-20 0 -6 -11 10 23 37 25 29 35 34 25 10 10 -6 -20 -20 -20 -20 -20 -20 -20 -20 -20 -20 -20 -20 -20 -20 -20 -20 -20
-5 -7 -7 14 22 31 33 27 35 33 22 26 -7 -2 2 -20 -17 -20 -20 -20 -20 -20 -20 -20 -20 -20 -20 -20 -20 -20 -20 -20
8 -2 4 -6 15 26 20 33 34 30 13 10 -17 -7 4 21 12 -20 -20 -20 -20 -20 -20 -20 -20 -20 -20 -20 -20 -20 -20 -20
7 4 9 10 18 16 23 30 32 28 15 14 22 11 26 23 -15 -20 -20 -20 -20 -20 -20 -20 -20 -20 -20 -20 -20 -20 -20 -20
-0 -2 8 7 11 15 25 28 26 29 21 27 19 23 25 9 -10 -15 -20 -20 -20 -20 -20 -20 -20 -20 -20 -20 -20 -20 -20 -20
2 0 7 2 11 20 15 11 13 14 25 30 14 -2 4 2 -13 -20 -20 -20 -20 -20 -20 -20 -20 -20 -20 -20 -20 -20 -20 -20
6 -5 11 11 -3 12 8 -4 11 14 19 19 11 8 3 -11 -11 -17 -20 -20 -20 -20 -20 -20 -20 -20 -20 -20 -20 -20 -20 -20
0 9 -8 -7 22 16 17 21 21 18 1 -5 14 18 5 -20 -20 -20 -20 -20 -20 -20 -20 -20 -20 -5 24 -20 -20 -20 -20 -20
3 3 -13 -1 3 10 12 19 28 6 15 -3 13 -15 -19 -15 -20 -20 -20 -20 -20 -20 -20 -20 -20 -20 -20 -20 -20 -20 -20 0
0 6 9 -4 3 -14 -9 15 12 20 7 15 -12 -18 -13 -20 -20 -20 -20 -20 -20 -20 -20 -20 -20 26 19 -20 -20 -20 -20 -20
-20 -1 9 -10 -20 -20 -20 -5 -5 -15 4 10 7 -12 -20 -20 -20 -20 17 31 -20 -3 -2 -20 -20 -20 21 18 9 -10 -20 -20
-20 -20 -15 6 -6 -18 -20 -20 -20 -20 -20 -20 -20 -19 -18 -5 -20 -20 -20 -20 -20 -20 30 -2 -20 -10 -20 22 -20 -20 -20 14
-20 -20 -20 -17 -7 -19 3 2 -20 -20 -20 -20 -20 -20 -20 -20 -20 -20 -20 -20 -20 -20 -20 -20 -20 -20 -20 -20 -20 -20 -20 -20

GFSFLT2_prec_radar_060.txt.gz
Reflectivity
15 -20 -20 16 -16 21 33 47 48 44 15 -13 -20 -20 20 -20 -20 -20 -4 -20 -17 16 2 -20 -20 -20 -20 -20 -20 -20 -20 -20
-20 -19 -20 11 11 30 32 21 28 51 38 9 -14 -18 -0 3 -20 -20 -9 -20 -15 -16 -20 -20 -20 -20 -20 -20 -20 -20 -20 -20
-17 -20 -20 -17 30 30 25 19 30 50 35 0 -20 -20 -1 -19 -14 -3 -19 23 18 6 -20 -20 -20 -20 -20 -20 -20 -20 -20 -20
-11 4 5 10 27 28 25 9 34 48 34 8 18 -20 2 9 30 -6 -20 -4 -18 3 -20 -20 -20 -20 -20 -20 -20 -20 -20 -20
13 -2 -5 -12 -12 2 19 22 31 48 31 27 30 28 1 11 12 -12 -20 -20 -20 -3 -20 -20 -20 -20 -20 -20 -20 -20 -20 -20
-17 17 15 -20 -14 0 -9 16 31 39 30 12 -18 10 31 12 -13 -8 -16 -20 -7 -2 -20 -20 -20 -20 -20 -20 -20 -20 -20 -20
-3 -11 -20 22 6 -7 -3 -2 -0 16 19 25 2 12 16 33 13 -15 -20 -2 1 -12 -20 -20 -20 -20 -20 -20 -20 -20 -20 -20
1 -11 14 21 -2 -14 21 -10 -20 -13 -13 -7 31 13 16 34 8 6 -20 -7 -13 -7 -20 -20 -20 -20 -20 -20 -20 -20 -20 -20
-20 -20 -20 -20 1 -19 -20 -6 -20 -16 10 8 5 19 18 32 -20 -19 -4 -9 -4 -4 -20 -20 -20 -20 -20 -20 -20 -20 -20 -20
-20 -17 -20 -8 -5 4 -10 6 -14 -20 -8 -1 11 22 18 -16 -20 16 -12 15 2 -19 -20 -20 -20 -20 -20 -20 -20 -20 -20 -20
2 -16 -20 -20 -10 -12 1 12 26 -18 -3 10 -2 14 -13 12 15 29 -9 17 3 -20 -20 -20 -20 -20 -20 -20 -20 -20 -20 -20
-20 -12 -15 -18 -15 -20 -20 4 27 17 26 16 18 15 -20 31 18 30 19 19 -2 -20 -20 -20 -20 -20 -20 -20 -20 -20 -20 -20
-20 -2 -3 -15 -20 -1 -3 18 28 30 29 16 16 4 -20 11 21 18 -4 14 2 1 -20 -8 -20 -20 -20 -20 -20 -20 -20 -20
-2 -19 -9 -16 -20 -0 7 -4 12 24 17 5 -3 -12 6 18 22 -2 19 6 -20 1 24 16 -11 -20 -20 -20 -20 -20 -20 -20
4 -20 -16 -19 -20 2 6 9 5 18 18 23 1 3 12 9 -12 6 -4 -3 13 27 24 6 -19 -20 -20 -20 -20 -20 -20 -20
1 1 -20 -20 -20 -2 -19 -18 -17 -20 -3 14 15 1 -19 -20 -18 -19 -20 -20 -11 25 -0 -20 -20 -20 -20 -20 -20 -20 -14 19
-20 10 -20 -20 -19 -15 -2 -6 -20 -20 -20 0 3 14 -2 -20 -20 -20 -20 -20 -18 19 -20 -20 -20 -20 -20 -20 -20 -20 -20 -20
-20 -7 11 -17 -20 -20 -20 -18 -20 -20 -16 -9 -4 -12 -18 -20 -7 -19 -20 -20 -20 7 -20 -20 -20 -20 -20 -20 -20 -20 -20 -20
-20 -8 9 16 -20 -20 -20 -7 -20 -20 -20 -20 -20 -20 -20 -20 -20 -20 -20 -20 -20 -20 -20 -20 -20 -20 -20 -20 -20 -20 -20 -20
-20 -20 -13 9 -13 -20 -20 -20 -20 -20 -20 -20 -20 -20 -20 -20 -20 -20 -20 -20 -20 -20 -20 20 -20 -20 -20 30 1 -20 -20 -20